Location: Antioch
(38.0049°N, 121.8058°W)
Time: 01:59:29
(UTC+00:00)

Cosmos 1727 Rocket - Pass Details

Date: 11 February 2026
Orbit: 960 x 996 km, 82.9° (Epoch: 13 March)

Event Time Altitude Azimuth Distance (km) Brightness Sun altitude
Rises 13:17:07 0° 344° (NNW) 3,652 6.8 -21.1°
Reaches altitude 10° 13:19:46 10° 336° (NNW) 2,704 6.1 -20.6°
Maximum altitude 13:25:22 37° 271° (W) 1,453 4.4 -19.5°
Drops below altitude 10° 13:30:58 10° 206° (SSW) 2,706 6.1 -18.4°
Sets 13:33:39 0° 199° (SSW) 3,654 6.9 -17.8°
